Powrót do katalogu

STARLINK-31269

AktywnyŁącznośćVLEO
NORAD 58844·PAYLOAD·🇺🇸 United States

Wystrzelony Jan 24, 2024 z Vandenberg Space Force Base

Loading…

Następne Przeloty (najbliższe 24 godziny)

TLE

ŚwieżeSource: CelesTrak SupGP

Epoka: Sep 14, 2026, 21:01 UTC

1 58844C 24017U   26257.87618056 -.00051120  00000+0 -15103-2 0  2575
2 58844  53.1561 133.6657 0001240  82.8335 256.2100 15.34417709    17

Śledź STARLINK-31269 w czasie rzeczywistym z AllMySat

Download on the App Store